Location: Oberstdorf
(47.4188°N, 10.2969°E)
Time: 18:42:31
(UTC+01:00)

Envisat - Visible Passes

Search period start: 19 November 2017 00:00
Search period end: 29 November 2017 00:00
Orbit: 764 x 766 km, 98.2° (Epoch: 19 November)

Date Brightness Start Highest point End Pass type
(mag) Time Alt. Az. Time Alt. Az. Time Alt. Az.
19 Nov 5.3 19:49:53 14° N 19:49:53 14° N 19:50:33 10° N visible
20 Nov 5.1 19:12:50 14° N 19:12:50 14° N 19:13:32 10° N visible
21 Nov 5.1 18:35:46 11° NNE 18:35:46 11° NNE 18:36:06 10° NNE visible
21 Nov 5.7 20:15:59 11° NNW 20:15:59 11° NNW 20:16:09 10° NNW visible
22 Nov 5.4 19:38:55 13° N 19:38:55 13° N 19:39:23 10° N visible
23 Nov 5.2 19:01:51 12° N 19:01:51 12° N 19:02:16 10° N visible
24 Nov 5.7 20:04:59 10° NNW 20:04:59 10° NNW 20:05:03 10° NNW visible
25 Nov 5.4 19:27:55 11° N 19:27:55 11° N 19:28:11 10° N visible
26 Nov 5.3 18:50:51 10° N 18:50:51 10° N 18:50:57 10° N visible
28 Nov 5.4 19:16:53 10° N 19:16:53 10° N 19:16:57 10° N visible
